Regional Weather Roundup
Issued by NWS

Home | Current Version | Previous Version | Text Only | Print | Product List | Glossary Off
Versions: 1 2 3 4 5 6 7 8 9 10 11 12 13 14 15 16 17 18 19 20 21 22 23 24 25 26 27 28 29 30 31 32 33 34 35 36 37 38 39 40 41 42 43 44 45 46 47 48 49 50

000
ASUS43 KMKX 280900
RWRWI

WISCONSIN REGIONAL WEATHER ROUNDUP
NATIONAL WEATHER SERVICE MILWAUKEE/SULLIVAN WI
400 AM CDT SUN AUG 28 2016

NOTE: "FAIR" INDICATES FEW OR NO CLOUDS BELOW 12,000 FEET WITH NO
SIGNIFICANT WEATHER AND/OR OBSTRUCTIONS TO VISIBILITY.

WIZ001-002-006>008-014>016-023>028-281000-
NORTHWEST WISCONSIN

CITY           SKY/WX    TMP DP  RH WIND       PRES   REMARKS
SUPERIOR ARPT  FOG       56  56 100 S3        30.09S VSB 1/4
ASHLAND        CLOUDY    60  60 100 CALM      30.11R FOG
HAYWARD        CLOUDY    62  60  93 S5        30.12S
SIREN          CLOUDY    60  60  98 SW3       30.12S
CUMBERLAND     FOG       59  57  94 CALM      30.13S VSB 1/2
RICE LAKE      FOG       60  58  96 CALM      30.14F VSB<1/4
CHETEK         NOT AVBL
LADYSMITH      MOCLDY    62  61  96 W5        30.15R
EAU CLAIRE     NOT AVBL
MENOMONIE      FOG       62  62  99 CALM      30.11F VSB 1/4
NEW RICHMOND   FOG       61  61 100 CALM      30.11F VSB 1/2
OSCEOLA        FOG       60  60 100 CALM      30.13F VSB 1/4
$$

WIZ003>005-009-010-017-018-281000-
NORTH CENTRAL WISCONSIN

CITY           SKY/WX    TMP DP  RH WIND       PRES   REMARKS
MANITOWISH WTR NOT AVBL
ARBOR VITAE    CLOUDY    62  60  95 CALM      30.12S
WOODRUFF       CLOUDY    62  60  95 CALM      30.12S
RHINELANDER    CLOUDY    63  63 100 W6        30.13R
EAGLE RIVER    MOCLDY    61  61 100 W6        30.12R
LAND O LAKES   CLOUDY    63  62  97 W5        30.12R
PHILLIPS       CLOUDY    61  61 100 CALM      30.13R
TOMAHAWK       CLOUDY    60  59  96 CALM      30.13S FOG
MEDFORD        CLOUDY    61  61 100 W5        30.13S FOG
MERRILL        CLOUDY    62  62 100 CALM      30.13S
$$

WIZ029-030-035-036-043>047-281000-
CENTRAL WISCONSIN

CITY           SKY/WX    TMP DP  RH WIND       PRES   REMARKS
WAUSAU         MOCLDY    63  61  93 SW3       30.12R
MOSINEE        PTCLDY    61  61 100 W3        30.14R FOG
MARSHFIELD     MOCLDY    62  60  93 W3        30.13S FOG
STEVENS POINT  CLOUDY    63  63  98 W3        30.14R
WAUPACA        CLOUDY    65  64  99 CALM      30.13S
WAUTOMA        CLOUDY    64  64 100 W6        30.13S FOG
WISC RAPIDS    CLOUDY    65  65 100 CALM      30.15R FOG
CAMP DOUGLAS   NOT AVBL
$$

WIZ011>013-019>022-031-037>040-048>050-281000-
NORTHEAST WISCONSIN

CITY           SKY/WX    TMP DP  RH WIND       PRES   REMARKS
ANTIGO         CLOUDY    62  62  99 CALM      30.14R
SHAWANO        CLOUDY    65  64  94 CALM      30.12S FOG
OCONTO         NOT AVBL
STURGEON BAY   CLOUDY    64  63  96 W8        30.13R
GREEN BAY      CLOUDY    63  63 100 MISG      30.12S
MANITOWOC      FOG       63  63 100 W5        30.12R VSB 3/4
APPLETON       FOG       63  63 100 W9        30.12R VSB 1/4
CLINTONVILLE   CLOUDY    63  63 100 CALM      30.13R FOG
OSHKOSH        FOG       63  63 100 VRB3      30.12S VSB 1/4
$$

WIZ032>034-041-042-053>061-281000-
SOUTHWEST WISCONSIN

CITY           SKY/WX    TMP DP  RH WIND       PRES   REMARKS
LA CROSSE      FOG       67  67 100 S7        30.11R VSB 1
SPARTA         CLOUDY    64  64 100 CALM      30.13R FOG
VIROQUA        CLOUDY    63  63 100 S3        30.14S VSB 1/4
BOSCOBEL       FOG       64  63  96 CALM      30.13S VSB 1/4
PRAIRIE DU CHI FOG       63  61  96 CALM      30.12S VSB 1/4
PLATTEVILLE    MOCLDY    64  64 100 CALM      30.14S VSB 1/4
$$

WIZ056-057-062-063-064-067-068-281000-
SOUTH CENTRAL WISCONSIN

CITY           SKY/WX    TMP DP  RH WIND       PRES   REMARKS
REEDSBURG      NOT AVBL
BARABOO/DELLS  FOG       61  59  95 CALM      30.13S VSB<1/4
LONE ROCK      NOT AVBL
MINERAL POINT  FOG       63  63 100 CALM      30.14S VSB 1/2
MADISON        FOG       64  64 100 S3        30.13R VSB<1/4
MIDDLETON      CLOUDY    61  61 100 CALM      30.14R VSB 1/2
WATERTOWN      FOG       63  63 100 CALM      30.14R VSB 1/4
MONROE         CLOUDY    66  64  94 CALM      30.14R FOG
JANESVILLE     MOCLDY    66  64  94 CALM      30.13S FOG
$$

WIZ051-052-058>065-066-070>072-281000-
SOUTHEAST WISCONSIN

CITY           SKY/WX    TMP DP  RH WIND       PRES   REMARKS
MILWAUKEE      FOG       66  64  93 CALM      30.13S VSB 1/4
WAUKESHA       FOG       61  61 100 CALM      30.15R VSB 3/4
MILWAUKEE/TIMM CLEAR     64  63  94 S5        30.14R
RACINE         CLOUDY    69  67  93 NW5       30.14S FOG
BURLINGTON     FOG       63  63  99 CALM      30.14R VSB 1/4
KENOSHA        PTCLDY    69  67  93 N3        30.13S
FOND DU LAC    FOG       64  63  96 SW5       30.13R VSB 1/4
SHEBOYGAN      FOG       62  61  96 W6        30.13R VSB 1/4
WEST BEND      FOG       61  61 100 CALM      30.14R VSB<1/4
JUNEAU         FOG       64  64  99 SW3       30.14S VSB<1/4
$$

LSZ147-162-281000-
LAKE SUPERIOR

STATION/POSITION TIME  TEMP    WIND        PRES    WAVE
                       AIR SEA DIR/SP/G            HT/PER
                 (UTC) (F)     (DEG/KT/KT) (MB)    (FT/S)
W MID LAKE BUOY  0750   64 67  280/  4/  6 1017.7R   1/ 4
DEVILS ISLAND    0800   62     220/  6/  8 1018.9R
PORT WING        0800   58     170/  2/  3 1019.3R
SAXON HARBOR     0840   63     190/  4/  6 1019.3R
$$

LMZ867-665-643>646-281000-
LAKE MICHIGAN

STATION/POSITION TIME  TEMP    WIND        PRES    WAVE
                       AIR SEA DIR/SP/G            HT/PER
                 (UTC) (F)     (DEG/KT/KT) (MB)    (FT/S)
CHAMBERS ISLAND  0800   65     210/  4/  9 1018.6S
S GREEN BAY BUOY 0800   65 71  270/ 12/ 14 1019.0R
N MID LAKE BUOY  0750   67 70  270/ 16/ 17 1017.8R   1/ 4
NORTHPORT PIER   0800   66     290/  6/  9 1018.6R
SISTER BAY       0807   67     300/ 12/ 13   N/A
KEWAUNEE LAKESHO 0800   63     280/  3/  6 1018.7R
SHEBOYGAN LAKESH 0800   64     240/  5/  5 1019.4R
PORT WASHINGTON  0840   62      CALM  /  2 1020.7S
ATWATER BUOY     0800   63      CALM  /  2   N/A
MILWAUKEE LAKESH 0810   63     220/  3/  3   N/A
S MID LAKE BUOY  0750   72 75  350/ 10/ 12 1019.0R   1
KENOSHA   LAKESH 0800   66      40/  1/  2 1020.0R
$$

TC  - TEMPERATURE IN CELSIUS
VSB - VISIBILITY IN STATUTE MILES
WCI - WIND CHILL INDEX
HX  - HEAT INDEX





USA.gov is the U.S. government's official web portal to all federal, state and local government web resources and services.